Кумдаг

Туркменистан     39°12′24″N   54°35′55″E
темп.,
°C
ветер,
м/с
пор.,
м/с
влажн.,
%
обл.,
%
осадки,
мм/ч
давл.,
гПа
погр.,
м
17 апреля, сб
сб1723:00+21зюз45370 0.0 1019132
02:00+19ююз33410 0.0 101944
05:00+17ю34540 0.0 102069
08:00+17ююв34570 0.0 1021184
11:00+22ю33380 0.0 1022678
14:00+26ю222621 0.0 10201598
17:00+27ююв11214 0.0 10182091
20:00+26вюв22225 0.0 1018481
18 апреля, вс
вс1823:00+24всв33252 0.0 101924
02:00+22всв442712 0.0 101844
05:00+21всв56285 0.0 101856
08:00+21всв610270 0.0 1018204
11:00+27всв88171 0.0 10171114
14:00+30всв55124 0.0 10151786
17:00+31всв33100 0.0 10132025
20:00+29всв3412100 0.0 101343
19 апреля, пн
пн1923:00+26св3315100 0.0 101333
02:00+24ссз33216 0.0 101220
05:00+21зсз4530100 0.0 101254
08:00+21зсз71033100 0.0 1014256
11:00+22зсз91030100 0.0 1016540
14:00+23з8932100 0.3 10151037
17:00+24зсз8933100 0.3 10151049
20:00+21з810365 0.0 1016423
20 апреля, вт
вт2023:00+18зюз58495 0.0 1016251
02:00+16зюз68605 0.0 1017196
05:00+15зюз34635 0.0 101668
08:00+16юз3358100 0.0 1017144
11:00+21ю2239100 0.0 1017581
14:00+25юв1227100 0.0 10151009
17:00+28юв2322100 0.0 10131578
20:00+27вюв3423100 0.0 1012411
21 апреля, ср
ср2123:00+25всв58265 0.0 1012113
02:00+23всв81429100 0.0 1013283
05:00+21всв13183617 0.0 1013507
08:00+19всв141945100 0.0 1014682
11:00+22всв151734100 0.0 1016924
14:00+27всв1415255 0.0 10151309
17:00+27всв14142284 0.0 10151498
20:00+25всв13172396 0.0 10151048